30-12-2023, 00:00:02,    212,    0.5,    3.6,   0.00,   0.00, 1008.0,    0.5, -999.0
30-12-2023, 00:00:12,    231,    0.9,    3.7,   0.00,   0.00, 1008.1,    0.8, -999.0
30-12-2023, 00:00:22,    231,    0.8,    3.7,   0.00,   0.00, 1008.1,    0.7, -999.0
30-12-2023, 00:00:31,    225,    0.0,    3.6,   0.00,   0.00, 1007.9,    0.5, -999.0
30-12-2023, 00:00:42,    225,    0.6,    3.6,   0.00,   0.00, 1008.0,    0.5, -999.0
30-12-2023, 00:00:52,    218,    0.4,    3.6,   0.00,   0.00, 1008.1,    0.6, -999.0
30-12-2023, 00:01:01,    218,    1.5,    3.6,   0.00,   0.00, 1008.0,    0.4, -999.0
30-12-2023, 00:01:11,    219,    1.0,    3.7,   0.00,   0.00, 1008.1,    0.6, -999.0
30-12-2023, 00:01:22,    218,    0.6,    3.6,   0.00,   0.00, 1008.0,    0.4, -999.0
30-12-2023, 00:01:31,    218,    0.0,    3.6,   0.00,   0.00, 1007.9,    0.4, -999.0
30-12-2023, 00:01:41,    228,    1.1,    3.6,   0.00,   0.00, 1008.0,    0.7, -999.0
30-12-2023, 00:01:51,    228,    0.3,    3.6,   0.00,   0.00, 1008.0,    0.6, -999.0
30-12-2023, 00:02:02,    228,    0.0,    3.5,   0.00,   0.00, 1007.9,    0.4, -999.0
30-12-2023, 00:02:11,    227,    0.1,    3.6,   0.00,   0.00, 1007.9,    0.6, -999.0
30-12-2023, 00:02:21,    228,    0.0,    3.6,   0.00,   0.00, 1007.9,    0.6, -999.0
30-12-2023, 00:02:31,    228,    0.1,    3.6,   0.00,   0.00, 1008.0,    0.6, -999.0
30-12-2023, 00:02:41,    229,    1.5,    3.6,   0.00,   0.00, 1008.0,    0.4, -999.0
30-12-2023, 00:02:51,    212,    1.1,    3.6,   0.00,   0.00, 1008.0,    0.6, -999.0
30-12-2023, 00:03:01,    211,    1.1,    3.6,   0.00,   0.00, 1008.1,    0.5, -999.0
30-12-2023, 00:03:11,    211,    0.0,    3.6,   0.00,   0.00, 1007.9,    0.3, -999.0
30-12-2023, 00:03:21,    211,    0.1,    3.6,   0.00,   0.00, 1008.0,    0.4, -999.0
30-12-2023, 00:03:31,    212,    0.0,    3.6,   0.00,   0.00, 1007.9,    0.5, -999.0
30-12-2023, 00:03:41,    219,    0.8,    3.6,   0.00,   0.00, 1008.0,    0.4, -999.0
30-12-2023, 00:03:51,    220,    0.2,    3.5,   0.00,   0.00, 1007.9,    0.4, -999.0
30-12-2023, 00:04:01,    221,    0.6,    3.6,   0.00,   0.00, 1008.1,    0.5, -999.0
30-12-2023, 00:04:11,    220,    0.0,    3.6,   0.00,   0.00, 1007.9,    0.4, -999.0
30-12-2023, 00:04:21,    220,    0.0,    3.6,   0.00,   0.00, 1007.9,    0.3, -999.0
30-12-2023, 00:04:31,    221,    0.0,    3.5,   0.00,   0.00, 1007.9,    0.5, -999.0
30-12-2023, 00:04:41,    220,    0.0,    3.5,   0.00,   0.00, 1007.9,    0.4, -999.0
30-12-2023, 00:04:51,    220,    0.0,    3.6,   0.00,   0.00, 1007.9,    0.4, -999.0
30-12-2023, 00:05:01,    220,    0.0,    3.5,   0.00,   0.00, 1007.9,    0.5, -999.0
30-12-2023, 00:05:11,    220,    0.0,    3.6,   0.00,   0.00, 1007.9,    0.5, -999.0
30-12-2023, 00:05:21,    221,    0.0,    3.5,   0.00,   0.00, 1007.9,    0.5, -999.0
30-12-2023, 00:05:31,    223,    0.7,    3.6,   0.00,   0.00, 1008.0,    0.5, -999.0
30-12-2023, 00:05:41,    216,    0.9,    3.7,   0.00,   0.00, 1008.0,    0.7, -999.0
30-12-2023, 00:05:51,    218,    0.8,    3.6,   0.00,   0.00, 1008.0,    0.9, -999.0
30-12-2023, 00:06:01,    222,    0.2,    3.6,   0.00,   0.00, 1008.0,    0.5, -999.0
30-12-2023, 00:06:11,    217,    0.9,    3.6,   0.00,   0.00, 1008.0,    0.9, -999.0
30-12-2023, 00:06:21,    234,    1.5,    3.6,   0.00,   0.00, 1008.0,    0.9, -999.0
30-12-2023, 00:06:31,    245,    1.5,    3.7,   0.00,   0.00, 1008.0,    0.7, -999.0
30-12-2023, 00:06:41,    245,    0.0,    3.6,   0.00,   0.00, 1007.9,    0.3, -999.0
30-12-2023, 00:06:51,    216,    0.7,    3.5,   0.00,   0.00, 1008.0,    0.8, -999.0
30-12-2023, 00:07:01,    232,    1.3,    3.6,   0.00,   0.00, 1008.0,    0.4, -999.0
30-12-2023, 00:07:11,    230,    2.2,    3.6,   0.00,   0.00, 1008.0,    0.5, -999.0
30-12-2023, 00:07:21,    225,    1.6,    3.7,   0.00,   0.00, 1008.1,    0.4, -999.0
30-12-2023, 00:07:30,    224,    0.7,    3.6,   0.00,   0.00, 1008.0,    0.4, -999.0
30-12-2023, 00:07:41,    223,    0.0,    3.5,   0.00,   0.00, 1007.9,    0.3, -999.0
30-12-2023, 00:07:51,    224,    0.2,    3.6,   0.00,   0.00, 1008.0,    0.5, -999.0
30-12-2023, 00:08:01,    224,    0.2,    3.6,   0.00,   0.00, 1008.0,    0.5, -999.0
30-12-2023, 00:08:11,    223,    0.0,    3.5,   0.00,   0.00, 1007.9,    0.7, -999.0
30-12-2023, 00:08:21,    223,    0.0,    3.6,   0.00,   0.00, 1007.9,    0.3, -999.0
30-12-2023, 00:08:31,    224,    0.0,    3.5,   0.00,   0.00, 1007.9,    0.4, -999.0
30-12-2023, 00:08:40,    226,    0.1,    3.5,   0.00,   0.00, 1007.9,    0.4, -999.0
30-12-2023, 00:08:50,    226,    0.0,    3.5,   0.00,   0.00, 1007.9,    0.5, -999.0
30-12-2023, 00:09:01,    226,    0.0,    3.5,   0.00,   0.00, 1007.9,    0.4, -999.0
30-12-2023, 00:09:10,    229,    0.1,    3.5,   0.00,   0.00, 1008.0,    0.4, -999.0
30-12-2023, 00:09:20,    230,    1.0,    3.5,   0.00,   0.00, 1008.1,    0.1, -999.0
30-12-2023, 00:09:30,    228,    0.4,    3.6,   0.00,   0.00, 1008.0,    0.8, -999.0
30-12-2023, 00:09:41,    222,    0.6,    3.6,   0.00,   0.00, 1008.1,    0.5, -999.0
30-12-2023, 00:09:50,    234,    0.9,    3.6,   0.00,   0.00, 1008.1,    0.6, -999.0
30-12-2023, 00:10:00,    233,    0.5,    3.5,   0.00,   0.00, 1008.0,    0.6, -999.0
30-12-2023, 00:10:10,    232,    0.0,    3.4,   0.00,   0.00, 1007.9,    0.6, -999.0
30-12-2023, 00:10:20,    233,    1.1,    3.5,   0.00,   0.00, 1008.0,    0.6, -999.0
30-12-2023, 00:10:30,    231,    0.6,    3.6,   0.00,   0.00, 1008.0,    0.7, -999.0
30-12-2023, 00:10:40,    230,    0.1,    3.5,   0.00,   0.00, 1008.0,    0.6, -999.0
30-12-2023, 00:10:50,    228,    0.0,    3.5,   0.00,   0.00, 1007.9,    0.5, -999.0
30-12-2023, 00:11:00,    222,    0.4,    3.5,   0.00,   0.00, 1008.0,    0.5, -999.0
30-12-2023, 00:11:10,    219,    0.3,    3.6,   0.00,   0.00, 1008.0,    0.6, -999.0
30-12-2023, 00:11:20,    220,    0.0,    3.5,   0.00,   0.00, 1007.9,    0.7, -999.0
30-12-2023, 00:11:30,    220,    0.2,    3.5,   0.00,   0.00, 1008.0,    0.5, -999.0
30-12-2023, 00:11:40,    220,    0.0,    3.5,   0.00,   0.00, 1007.9,    0.2, -999.0
30-12-2023, 00:11:50,    220,    0.1,    3.5,   0.00,   0.00, 1008.0,    0.7, -999.0
30-12-2023, 00:12:00,    220,    0.0,    3.5,   0.00,   0.00, 1007.9,    0.3, -999.0
30-12-2023, 00:12:10,    220,    0.0,    3.4,   0.00,   0.00, 1007.9,    0.5, -999.0
30-12-2023, 00:12:20,    219,    0.2,    3.4,   0.00,   0.00, 1008.0,    0.8, -999.0
30-12-2023, 00:12:30,    220,    0.0,    3.5,   0.00,   0.00, 1007.9,    0.1, -999.0
30-12-2023, 00:12:40,    223,    0.1,    3.5,   0.00,   0.00, 1008.0,    0.8, -999.0
30-12-2023, 00:12:50,    222,    0.0,    3.5,   0.00,   0.00, 1007.9,    0.4, -999.0
30-12-2023, 00:13:00,    223,    0.0,    3.4,   0.00,   0.00, 1007.9,    0.3, -999.0
30-12-2023, 00:13:10,    223,    0.4,    3.5,   0.00,   0.00, 1008.0,    0.5, -999.0
30-12-2023, 00:13:20,    223,    0.1,    3.4,   0.00,   0.00, 1008.0,    0.6, -999.0
30-12-2023, 00:13:30,    222,    0.0,    3.5,   0.00,   0.00, 1007.9,    0.0, -999.0
30-12-2023, 00:13:40,    222,    0.0,    3.5,   0.00,   0.00, 1007.9,    0.7, -999.0
30-12-2023, 00:13:50,    222,    0.3,    3.5,   0.00,   0.00, 1008.0,    0.7, -999.0
30-12-2023, 00:14:00,    234,    0.3,    3.6,   0.00,   0.00, 1008.0,    0.6, -999.0
30-12-2023, 00:14:10,    217,    1.0,    3.6,   0.00,   0.00, 1008.1,    0.2, -999.0
30-12-2023, 00:14:20,    224,    1.1,    3.6,   0.00,   0.00, 1008.0,    0.5, -999.0
30-12-2023, 00:14:30,    221,    2.8,    3.6,   0.00,   0.00, 1008.0,    0.5, -999.0
30-12-2023, 00:14:39,    247,    2.5,    3.6,   0.00,   0.00, 1008.1,    0.6, -999.0
30-12-2023, 00:14:50,    242,    0.7,    3.6,   0.00,   0.00, 1008.1,    0.3, -999.0
30-12-2023, 00:15:00,    242,    0.1,    3.5,   0.00,   0.00, 1008.0,    0.6, -999.0
30-12-2023, 00:15:10,    242,    0.5,    3.5,   0.00,   0.00, 1008.0,    0.5, -999.0
30-12-2023, 00:15:20,    247,    2.9,    3.6,   0.00,   0.00, 1008.1,    1.0, -999.0
30-12-2023, 00:15:30,    249,    1.8,    3.6,   0.00,   0.00, 1008.1,    0.8, -999.0
30-12-2023, 00:15:40,    249,    0.2,    3.6,   0.00,   0.00, 1008.0,    0.4, -999.0
30-12-2023, 00:15:49,    249,    0.0,    3.5,   0.00,   0.00, 1007.9,    0.5, -999.0
30-12-2023, 00:16:00,    249,    0.0,    3.5,   0.00,   0.00, 1007.9,    0.4, -999.0
30-12-2023, 00:16:10,    249,    0.0,    3.5,   0.00,   0.00, 1007.9,    0.5, -999.0
30-12-2023, 00:16:20,    249,    0.0,    3.6,   0.00,   0.00, 1008.0,    0.4, -999.0
30-12-2023, 00:16:29,    249,    0.0,    3.5,   0.00,   0.00, 1007.9,    0.5, -999.0
30-12-2023, 00:16:39,    249,    0.0,    3.5,   0.00,   0.00, 1007.9,    0.5, -999.0
30-12-2023, 00:16:50,    249,    0.0,    3.5,   0.00,   0.00, 1007.9,    0.6, -999.0
30-12-2023, 00:16:59,    249,    0.0,    3.5,   0.00,   0.00, 1007.9,    0.5, -999.0
30-12-2023, 00:17:09,    249,    0.0,    3.5,   0.00,   0.00, 1007.9,    0.5, -999.0
30-12-2023, 00:17:19,    248,    0.0,    3.5,   0.00,   0.00, 1007.9,    0.5, -999.0
30-12-2023, 00:17:30,    219,    1.4,    3.6,   0.00,   0.00, 1008.0,    0.7, -999.0
30-12-2023, 00:17:39,    219,    0.9,    3.6,   0.00,   0.00, 1008.0,    0.4, -999.0
30-12-2023, 00:17:49,    220,    0.0,    3.6,   0.00,   0.00, 1007.9,    0.6, -999.0
30-12-2023, 00:18:00,    224,    0.8,    3.6,   0.00,   0.00, 1008.0,    0.5, -999.0
30-12-2023, 00:18:09,    225,    0.7,    3.5,   0.00,   0.00, 1008.1,    0.4, -999.0
30-12-2023, 00:18:19,    233,    0.6,    3.6,   0.00,   0.00, 1008.1,    0.7, -999.0
30-12-2023, 00:18:29,    220,    1.8,    3.6,   0.00,   0.00, 1008.0,    0.5, -999.0
30-12-2023, 00:18:39,    218,    0.5,    3.6,   0.00,   0.00, 1008.0,    0.6, -999.0
30-12-2023, 00:18:49,    218,    0.2,    3.6,   0.00,   0.00, 1008.0,    0.4, -999.0
30-12-2023, 00:18:59,    219,    0.0,    3.5,   0.00,   0.00, 1007.9,    0.7, -999.0
30-12-2023, 00:19:09,    220,    0.0,    3.5,   0.00,   0.00, 1007.9,    0.3, -999.0
30-12-2023, 00:19:19,    255,    1.6,    3.6,   0.00,   0.00, 1008.0,    0.4, -999.0
30-12-2023, 00:19:29,    215,    1.5,    3.6,   0.00,   0.00, 1008.0,    0.6, -999.0
30-12-2023, 00:19:39,    209,    0.3,    3.6,   0.00,   0.00, 1008.0,    0.2, -999.0
30-12-2023, 00:19:49,    222,    1.3,    3.6,   0.00,   0.00, 1008.1,    0.8, -999.0
30-12-2023, 00:19:59,    221,    2.0,    3.6,   0.00,   0.00, 1008.0,    0.3, -999.0
30-12-2023, 00:20:09,    204,    2.4,    3.6,   0.00,   0.00, 1008.0,    0.6, -999.0
30-12-2023, 00:20:19,    211,    1.2,    3.6,   0.00,   0.00, 1008.1,    0.4, -999.0
30-12-2023, 00:20:29,    211,    0.2,    3.6,   0.00,   0.00, 1008.0,    0.9, -999.0
30-12-2023, 00:20:39,    226,    0.0,    3.5,   0.00,   0.00, 1007.9,    0.5, -999.0
30-12-2023, 00:20:49,    231,    1.7,    3.6,   0.00,   0.00, 1008.1,    0.5, -999.0
30-12-2023, 00:20:59,    231,    1.0,    3.6,   0.00,   0.00, 1008.1,    0.7, -999.0
30-12-2023, 00:21:09,    230,    0.2,    3.5,   0.00,   0.00, 1008.0,    0.6, -999.0
30-12-2023, 00:21:19,    230,    0.0,    3.5,   0.00,   0.00, 1007.9,    0.7, -999.0
30-12-2023, 00:21:29,    223,    2.0,    3.5,   0.00,   0.00, 1008.0,    0.8, -999.0
30-12-2023, 00:21:39,    225,    1.8,    3.6,   0.00,   0.00, 1008.0,    0.6, -999.0
30-12-2023, 00:21:49,    222,    0.8,    3.6,   0.00,   0.00, 1008.0,    0.6, -999.0
30-12-2023, 00:21:59,    222,    0.4,    3.6,   0.00,   0.00, 1008.0,    0.7, -999.0
30-12-2023, 00:22:09,    226,    0.7,    3.6,   0.00,   0.00, 1008.0,    0.5, -999.0
30-12-2023, 00:22:19,    226,    0.1,    3.5,   0.00,   0.00, 1007.9,    0.7, -999.0
30-12-2023, 00:22:29,    209,    0.4,    3.5,   0.00,   0.00, 1008.0,    0.4, -999.0
30-12-2023, 00:22:39,    209,    0.0,    3.5,   0.00,   0.00, 1007.9,    0.4, -999.0
30-12-2023, 00:22:49,    245,    1.0,    3.5,   0.00,   0.00, 1008.0,    0.6, -999.0
30-12-2023, 00:22:59,    228,    1.6,    3.6,   0.00,   0.00, 1008.1,    0.5, -999.0
30-12-2023, 00:23:09,    230,    0.7,    3.6,   0.00,   0.00, 1008.0,    0.6, -999.0
30-12-2023, 00:23:19,    255,    0.5,    3.6,   0.00,   0.00, 1008.0,    0.8, -999.0
30-12-2023, 00:23:29,    254,    0.0,    3.5,   0.00,   0.00, 1007.9,    0.7, -999.0
30-12-2023, 00:23:38,    254,    0.0,    3.5,   0.00,   0.00, 1007.9,    0.5, -999.0
30-12-2023, 00:23:49,    254,    0.6,    3.6,   0.00,   0.00, 1008.0,    0.6, -999.0
30-12-2023, 00:23:59,    254,    0.6,    3.6,   0.00,   0.00, 1008.0,    0.7, -999.0
30-12-2023, 00:24:08,    252,    0.0,    3.6,   0.00,   0.00, 1007.9,    0.5, -999.0
30-12-2023, 00:24:18,    237,    0.4,    3.5,   0.00,   0.00, 1008.0,    0.5, -999.0
30-12-2023, 00:24:29,    237,    0.0,    3.5,   0.00,   0.00, 1007.9,    0.5, -999.0
30-12-2023, 00:24:39,    237,    0.0,    3.5,   0.00,   0.00, 1007.9,    0.5, -999.0
30-12-2023, 00:24:48,    237,    0.2,    3.5,   0.00,   0.00, 1007.9,    0.7, -999.0
30-12-2023, 00:24:58,    234,    0.5,    3.5,   0.00,   0.00, 1008.0,    0.5, -999.0
30-12-2023, 00:25:09,    209,    0.7,    3.5,   0.00,   0.00, 1008.0,    0.7, -999.0
30-12-2023, 00:25:20,    209,    0.8,    3.5,   0.00,   0.00, 1008.0,    0.6, -999.0
30-12-2023, 00:25:28,    209,    0.0,    3.4,   0.00,   0.00, 1007.9,    0.4, -999.0
30-12-2023, 00:25:39,    209,    0.0,    3.4,   0.00,   0.00, 1007.9,    0.6, -999.0
30-12-2023, 00:25:48,    210,    0.0,    3.4,   0.00,   0.00, 1007.8,    0.5, -999.0
30-12-2023, 00:25:58,    219,    0.6,    3.5,   0.00,   0.00, 1007.9,    0.6, -999.0
30-12-2023, 00:26:08,    219,    0.5,    3.6,   0.00,   0.00, 1008.0,    0.5, -999.0
30-12-2023, 00:26:19,    219,    0.0,    3.5,   0.00,   0.00, 1007.9,    0.5, -999.0
30-12-2023, 00:26:28,    220,    0.0,    3.5,   0.00,   0.00, 1007.9,    0.6, -999.0
30-12-2023, 00:26:38,    219,    0.0,    3.3,   0.00,   0.00, 1007.9,    0.4, -999.0
30-12-2023, 00:26:48,    222,    0.1,    3.4,   0.00,   0.00, 1007.9,    0.5, -999.0
30-12-2023, 00:26:58,    225,    1.8,    3.5,   0.00,   0.00, 1008.0,    0.6, -999.0
30-12-2023, 00:27:08,    225,    0.8,    3.6,   0.00,   0.00, 1007.9,    0.4, -999.0
30-12-2023, 00:27:18,    225,    0.7,    3.4,   0.00,   0.00, 1007.9,    0.6, -999.0
30-12-2023, 00:27:28,    216,    0.4,    3.5,   0.00,   0.00, 1007.9,    0.3, -999.0
30-12-2023, 00:27:38,    216,    0.1,    3.6,   0.00,   0.00, 1007.9,    0.6, -999.0
30-12-2023, 00:27:48,    222,    0.0,    3.5,   0.00,   0.00, 1007.9,    0.5, -999.0
30-12-2023, 00:27:58,    230,    0.8,    3.5,   0.00,   0.00, 1007.9,    0.4, -999.0
30-12-2023, 00:28:08,    231,    0.1,    3.4,   0.00,   0.00, 1007.9,    0.4, -999.0
30-12-2023, 00:28:18,    233,    1.0,    3.5,   0.00,   0.00, 1007.9,    0.7, -999.0
30-12-2023, 00:28:28,    233,    0.1,    3.4,   0.00,   0.00, 1007.9,    0.5, -999.0
30-12-2023, 00:28:38,    232,    0.0,    3.4,   0.00,   0.00, 1007.8,    0.6, -999.0
30-12-2023, 00:28:48,    232,    0.0,    3.3,   0.00,   0.00, 1007.8,    0.6, -999.0
30-12-2023, 00:28:58,    232,    0.0,    3.4,   0.00,   0.00, 1007.8,    0.6, -999.0
30-12-2023, 00:29:08,    232,    0.0,    3.4,   0.00,   0.00, 1007.8,    0.5, -999.0
30-12-2023, 00:29:18,    232,    0.0,    3.4,   0.00,   0.00, 1007.8,    0.4, -999.0
30-12-2023, 00:29:28,    232,    0.0,    3.4,   0.00,   0.00, 1007.8,    0.4, -999.0
30-12-2023, 00:29:38,    232,    0.0,    3.4,   0.00,   0.00, 1007.8,    0.5, -999.0
30-12-2023, 00:29:48,    232,    0.0,    3.4,   0.00,   0.00, 1007.8,    0.6, -999.0
30-12-2023, 00:29:58,    232,    0.0,    3.4,   0.00,   0.00, 1007.8,    0.5, -999.0
30-12-2023, 00:30:08,    232,    0.0,    3.4,   0.00,   0.00, 1007.8,    0.4, -999.0
30-12-2023, 00:30:18,    232,    0.0,    3.4,   0.00,   0.00, 1007.8,    0.7, -999.0
30-12-2023, 00:30:28,    232,    0.0,    3.4,   0.00,   0.00, 1007.8,    0.2, -999.0
30-12-2023, 00:30:38,    232,    0.0,    3.4,   0.00,   0.00, 1007.8,    0.3, -999.0
30-12-2023, 00:30:48,    233,    0.0,    3.4,   0.00,   0.00, 1007.8,    0.2, -999.0
30-12-2023, 00:30:58,    239,    1.4,    3.4,   0.00,   0.00, 1007.9,    0.7, -999.0
30-12-2023, 00:31:08,    259,    0.4,    3.4,   0.00,   0.00, 1007.9,    0.5, -999.0
30-12-2023, 00:31:17,    257,    0.1,    3.4,   0.00,   0.00, 1007.9,    0.8, -999.0
30-12-2023, 00:31:28,    229,    1.8,    3.5,   0.00,   0.00, 1007.9,    0.5, -999.0
30-12-2023, 00:31:38,    226,    1.5,    3.5,   0.00,   0.00, 1007.9,    0.7, -999.0
30-12-2023, 00:31:47,    226,    1.0,    3.5,   0.00,   0.00, 1007.9,    0.5, -999.0
30-12-2023, 00:31:57,    225,    0.3,    3.4,   0.00,   0.00, 1007.8,    0.7, -999.0
30-12-2023, 00:32:08,    226,    0.4,    3.4,   0.00,   0.00, 1007.9,    0.4, -999.0
30-12-2023, 00:32:18,    226,    0.5,    3.5,   0.00,   0.00, 1007.9,    0.6, -999.0
30-12-2023, 00:32:27,    226,    0.0,    3.5,   0.00,   0.00, 1007.8,    0.1, -999.0
30-12-2023, 00:32:37,    226,    0.0,    3.4,   0.00,   0.00, 1007.8,    0.7, -999.0
30-12-2023, 00:32:48,    225,    0.0,    3.4,   0.00,   0.00, 1007.8,    0.5, -999.0
30-12-2023, 00:32:57,    226,    0.0,    3.5,   0.00,   0.00, 1007.8,    0.5, -999.0
30-12-2023, 00:33:07,    226,    0.0,    3.4,   0.00,   0.00, 1007.8,    0.5, -999.0
30-12-2023, 00:33:17,    226,    0.0,    3.4,   0.00,   0.00, 1007.8,    0.7, -999.0
30-12-2023, 00:33:27,    228,    0.0,    3.3,   0.00,   0.00, 1007.8,    0.4, -999.0
30-12-2023, 00:33:37,    228,    0.7,    3.4,   0.00,   0.00, 1007.9,    0.7, -999.0
30-12-2023, 00:33:47,    228,    0.0,    3.4,   0.00,   0.00, 1007.8,    0.6, -999.0
30-12-2023, 00:33:57,    228,    0.0,    3.4,   0.00,   0.00, 1007.7,    0.0, -999.0
30-12-2023, 00:34:07,    229,    0.8,    3.5,   0.00,   0.00, 1007.9,    0.6, -999.0
30-12-2023, 00:34:17,    229,    0.1,    3.4,   0.00,   0.00, 1007.7,    0.3, -999.0
30-12-2023, 00:34:27,    229,    0.0,    3.4,   0.00,   0.00, 1007.7,    0.6, -999.0
30-12-2023, 00:34:37,    229,    0.1,    3.4,   0.00,   0.00, 1007.8,    0.5, -999.0
30-12-2023, 00:34:47,    229,    0.1,    3.4,   0.00,   0.00, 1007.8,    0.8, -999.0
30-12-2023, 00:34:57,    228,    0.0,    3.4,   0.00,   0.00, 1007.8,    0.6, -999.0
30-12-2023, 00:35:07,    229,    0.0,    3.4,   0.00,   0.00, 1007.7,    0.2, -999.0
30-12-2023, 00:35:17,    228,    0.0,    3.4,   0.00,   0.00, 1007.7,    0.5, -999.0
30-12-2023, 00:35:27,    229,    0.0,    3.4,   0.00,   0.00, 1007.7,    0.1, -999.0
30-12-2023, 00:35:37,    229,    0.0,    3.4,   0.00,   0.00, 1007.7,    0.8, -999.0
30-12-2023, 00:35:47,    228,    0.0,    3.4,   0.00,   0.00, 1007.7,    0.5, -999.0
30-12-2023, 00:35:57,    228,    0.0,    3.3,   0.00,   0.00, 1007.7,    0.5, -999.0
30-12-2023, 00:36:07,    228,    0.0,    3.3,   0.00,   0.00, 1007.8,    0.5, -999.0
30-12-2023, 00:36:17,    228,    0.0,    3.3,   0.00,   0.00, 1007.7,    0.4, -999.0
30-12-2023, 00:36:27,    228,    0.0,    3.3,   0.00,   0.00, 1007.8,    0.5, -999.0
30-12-2023, 00:36:37,    228,    0.0,    3.3,   0.00,   0.00, 1007.7,    0.4, -999.0
30-12-2023, 00:36:47,    220,    0.8,    3.4,   0.00,   0.00, 1007.8,    0.4, -999.0
30-12-2023, 00:36:57,    219,    0.9,    3.4,   0.00,   0.00, 1007.9,    0.6, -999.0
30-12-2023, 00:37:07,    219,    0.4,    3.4,   0.00,   0.00, 1007.8,    0.6, -999.0
30-12-2023, 00:37:17,    220,    0.9,    3.5,   0.00,   0.00, 1007.8,    0.4, -999.0
30-12-2023, 00:37:27,    219,    0.7,    3.4,   0.00,   0.00, 1007.8,    0.6, -999.0
30-12-2023, 00:37:37,    219,    0.1,    3.4,   0.00,   0.00, 1007.8,    0.3, -999.0
30-12-2023, 00:37:47,    189,    1.1,    3.5,   0.00,   0.00, 1007.9,    0.8, -999.0
30-12-2023, 00:37:57,    197,    0.5,    3.4,   0.00,   0.00, 1007.8,    0.6, -999.0
30-12-2023, 00:38:07,    202,    0.4,    3.4,   0.00,   0.00, 1007.8,    0.4, -999.0
30-12-2023, 00:38:17,    203,    0.0,    3.3,   0.00,   0.00, 1007.8,    0.4, -999.0
30-12-2023, 00:38:26,    203,    0.0,    3.4,   0.00,   0.00, 1007.7,    0.6, -999.0
30-12-2023, 00:38:37,    203,    0.0,    3.4,   0.00,   0.00, 1007.7,    0.6, -999.0
30-12-2023, 00:38:47,    203,    0.0,    3.3,   0.00,   0.00, 1007.8,    0.4, -999.0
30-12-2023, 00:38:57,    203,    0.0,    3.3,   0.00,   0.00, 1007.8,    0.5, -999.0
30-12-2023, 00:39:07,    203,    0.0,    3.3,   0.00,   0.00, 1007.8,    0.3, -999.0
30-12-2023, 00:39:17,    203,    0.0,    3.4,   0.00,   0.00, 1007.8,    0.5, -999.0
30-12-2023, 00:39:27,    203,    0.0,    3.4,   0.00,   0.00, 1007.8,    0.7, -999.0
30-12-2023, 00:39:36,    202,    0.0,    3.4,   0.00,   0.00, 1007.8,    0.4, -999.0
30-12-2023, 00:39:47,    203,    0.0,    3.4,   0.00,   0.00, 1007.9,    0.4, -999.0
30-12-2023, 00:39:57,    203,    0.0,    3.4,   0.00,   0.00, 1007.8,    0.5, -999.0
30-12-2023, 00:40:06,    203,    0.0,    3.4,   0.00,   0.00, 1007.8,    0.4, -999.0
30-12-2023, 00:40:16,    203,    0.0,    3.3,   0.00,   0.00, 1007.8,    0.4, -999.0
30-12-2023, 00:40:27,    203,    0.0,    3.3,   0.00,   0.00, 1007.8,    0.4, -999.0
30-12-2023, 00:40:37,    203,    0.0,    3.3,   0.00,   0.00, 1007.9,    0.5, -999.0
30-12-2023, 00:40:46,    203,    0.0,    3.4,   0.00,   0.00, 1007.9,    0.5, -999.0
30-12-2023, 00:40:56,    202,    0.0,    3.3,   0.00,   0.00, 1007.9,    0.5, -999.0
30-12-2023, 00:41:07,    203,    0.0,    3.3,   0.00,   0.00, 1007.8,    0.3, -999.0
30-12-2023, 00:41:16,    203,    0.0,    3.4,   0.00,   0.00, 1007.9,    0.5, -999.0
30-12-2023, 00:41:26,    203,    0.0,    3.2,   0.00,   0.00, 1007.9,    0.4, -999.0
30-12-2023, 00:41:36,    204,    0.0,    3.4,   0.00,   0.00, 1007.9,    0.5, -999.0
30-12-2023, 00:41:46,    204,    0.0,    3.3,   0.00,   0.00, 1007.9,    0.6, -999.0
30-12-2023, 00:41:56,    203,    0.0,    3.2,   0.00,   0.00, 1007.9,    0.4, -999.0
30-12-2023, 00:42:06,    204,    0.3,    3.4,   0.00,   0.00, 1008.0,    0.5, -999.0
30-12-2023, 00:42:16,    204,    0.6,    3.4,   0.00,   0.00, 1008.0,    0.7, -999.0
30-12-2023, 00:42:26,    203,    0.2,    3.4,   0.00,   0.00, 1007.9,    0.7, -999.0
30-12-2023, 00:42:36,    204,    0.0,    3.3,   0.00,   0.00, 1007.8,    0.3, -999.0
30-12-2023, 00:42:46,    204,    0.0,    3.3,   0.00,   0.00, 1007.9,    0.3, -999.0
30-12-2023, 00:42:56,    204,    0.0,    3.3,   0.00,   0.00, 1007.9,    0.4, -999.0
30-12-2023, 00:43:06,    204,    0.0,    3.3,   0.00,   0.00, 1007.9,    0.4, -999.0
30-12-2023, 00:43:16,    204,    0.0,    3.4,   0.00,   0.00, 1007.9,    0.6, -999.0
30-12-2023, 00:43:26,    203,    0.0,    3.4,   0.00,   0.00, 1007.9,    0.3, -999.0
30-12-2023, 00:43:36,    204,    0.0,    3.3,   0.00,   0.00, 1007.9,    0.5, -999.0
30-12-2023, 00:43:46,    203,    0.0,    3.3,   0.00,   0.00, 1007.9,    0.6, -999.0
30-12-2023, 00:43:56,    204,    0.0,    3.2,   0.00,   0.00, 1007.9,    0.4, -999.0
30-12-2023, 00:44:06,    204,    0.0,    3.3,   0.00,   0.00, 1007.9,    0.3, -999.0
30-12-2023, 00:44:16,    230,    0.5,    3.4,   0.00,   0.00, 1007.9,    0.5, -999.0
30-12-2023, 00:44:26,    231,    2.0,    3.5,   0.00,   0.00, 1008.0,    0.4, -999.0
30-12-2023, 00:44:36,    230,    0.2,    3.4,   0.00,   0.00, 1008.0,    0.4, -999.0
30-12-2023, 00:44:46,    230,    0.0,    3.4,   0.00,   0.00, 1007.9,    0.6, -999.0
30-12-2023, 00:44:56,    231,    0.0,    3.3,   0.00,   0.00, 1007.9,    0.3, -999.0
30-12-2023, 00:45:06,    230,    0.0,    3.4,   0.00,   0.00, 1007.9,    0.5, -999.0
30-12-2023, 00:45:16,    230,    0.0,    3.4,   0.00,   0.00, 1007.9,    0.5, -999.0
30-12-2023, 00:45:26,    230,    0.0,    3.4,   0.00,   0.00, 1007.9,    0.4, -999.0
30-12-2023, 00:45:36,    230,    0.0,    3.3,   0.00,   0.00, 1007.9,    0.4, -999.0
30-12-2023, 00:45:46,    230,    0.0,    3.4,   0.00,   0.00, 1007.9,    0.7, -999.0
30-12-2023, 00:45:56,    212,    0.1,    3.3,   0.00,   0.00, 1007.9,    0.5, -999.0
30-12-2023, 00:46:06,    212,    0.3,    3.4,   0.00,   0.00, 1008.0,    0.5, -999.0
30-12-2023, 00:46:16,    211,    0.8,    3.4,   0.00,   0.00, 1008.0,    0.6, -999.0
30-12-2023, 00:46:26,    173,    0.8,    3.5,   0.00,   0.00, 1008.0,    0.5, -999.0
30-12-2023, 00:46:36,    176,    0.0,    3.4,   0.00,   0.00, 1007.9,    0.6, -999.0
30-12-2023, 00:46:45,    180,    0.7,    3.3,   0.00,   0.00, 1007.9,    0.6, -999.0